Overview Statistics Trail Chart Weather Telemetry Raw packets
 

This is the latest recevied weather packets stored in our database for station/object R8AHC-W2. If no packets are shown the sender has not sent any weather packets the latest 10 day(s).

<< 5 6 7 8 9 10 >>
Time Temp. Humidity Pressure Rain* Wind** Luminosity Snow
1777557422 9.44° C 51% 1017 hPa - 1.34 m/s, 174° - -
1777553821 10.56° C 51% 1018 hPa - 1.34 m/s, 174° - -
1777550222 7.78° C 40% 1018 hPa - 0.89 m/s, 183° - -
1777546622 8.89° C 40% 1018 hPa - 0.89 m/s, 183° - -
1777543022 10° C 40% 1018 hPa - 0.89 m/s, 183° - -
1777539422 11.11° C 40% 1019 hPa - 0.89 m/s, 183° - -
1777535822 12.22° C 40% 1020 hPa - 0.89 m/s, 183° - -
1777532222 6.11° C 52% 1020 hPa - 1.34 m/s, 216° - -
1777528622 7.22° C 52% 1021 hPa - 1.34 m/s, 216° - -
1777525022 8.33° C 52% 1022 hPa - 1.34 m/s, 216° - -
1777521422 2.22° C 79% 1022 hPa - 0.89 m/s, 241° - -
1777517823 3.33° C 79% 1022 hPa - 0.89 m/s, 241° - -
1777514222 4.44° C 79% 1022 hPa - 0.89 m/s, 241° - -
1777510621 -0.56° C 87% 1022 hPa - 2.24 m/s, 210° - -
1777507023 0.56° C 87% 1022 hPa - 2.24 m/s, 210° - -
1777503423 1.67° C 87% 1022 hPa - 2.24 m/s, 210° - -
1777499822 2.78° C 87% 1022 hPa - 2.24 m/s, 210° - -
1777496221 -0.56° C 32% 1022 hPa - 4.92 m/s, 256° - -
1777492621 0.56° C 32% 1022 hPa - 4.92 m/s, 256° - -
1777489022 1.67° C 32% 1021 hPa - 4.92 m/s, 256° - -
1777485422 2.78° C 32% 1021 hPa - 4.92 m/s, 256° - -
1777481822 3.89° C 32% 1021 hPa - 4.92 m/s, 256° - -
1777478223 5° C 32% 1020 hPa - 4.92 m/s, 256° - -
1777474629 6.11° C 32% 1019 hPa - 4.92 m/s, 256° - -
1777471022 7.22° C 32% 1018 hPa - 4.92 m/s, 256° - -

* Rain since midnight (hover to see other rain measurements)
** Current wind speed in m/s (hover to see current wind gust speed)